sat.trackr.live / text

‹ back to catalog

STARLINK-3692

NORAD 51958 · 2022-025C

PAYLOAD ACTIVE UNKNOWN

§ Identity

Operator
Country
US
Launch date
2022-03-09
Launch site
AFETR
Launch vehicle
Mass (kg)
RCS (m²)

Purposes: comms

External: N2YO · Heavens-Above · Gunter

§ Orbital elements

Epoch: 2026-09-20T04:13:26.469120Z

Period
94.01 min
Inclination
53.1621°
Eccentricity
0.0001271
Mean motion
15.31698386 rev/d
Perigee alt
469.9 km
Apogee alt
471.6 km
Semi-major
6,848.9 km
B*
-8.6966e-5
RAAN
188.4491°
Arg perigee
119.8925°
Mean anomaly
240.2203°
Rev number
25,097

§ Raw data

STARLINK-36921 51958U 22025C   26263.17600080 -.00003063  00000+0 -86966-4 0  99922 51958  53.1621 188.4491 0001271 119.8925 240.2203 15.31698386250975

JSON: /api/v1/satellites/51958 · /tle

For live sub-satellite position, see the globe view (requires WebGL).

§ Visibility from observer

Set your observer location to see the next 7 days of passes ≥ 10°. The values pass through the URL so the page stays shareable.

No JS? Fill the form by hand. The geolocation button needs JavaScript.